Time,TemperatureF,DewpointF,PressureIn,WindDirection,WindDirectionDegrees,WindSpeedMPH,WindSpeedGustMPH,Humidity,HourlyPrecipIn,Conditions,Clouds,dailyrainin,SoftwareType,DateUTC
2013-02-11 00:05:00,-1.3,-2.8,30.20,North,0,0.0,-999.0,93,-99.99,,,0.00,Acu-Link.com,2013-02-11 05:05:00,
2013-02-11 00:21:00,-1.1,-2.6,30.19,WSW,247,0.0,-999.0,93,-99.99,,,0.00,Acu-Link.com,2013-02-11 05:21:00,
2013-02-11 00:36:00,-1.5,-3.0,30.18,NNW,337,0.0,-999.0,93,-99.99,,,0.00,Acu-Link.com,2013-02-11 05:36:00,
2013-02-11 00:51:00,-1.8,-3.3,30.18,NNW,337,0.0,-999.0,93,-99.99,,,0.00,Acu-Link.com,2013-02-11 05:51:00,
2013-02-11 01:06:00,-1.1,-2.4,30.18,NNE,22,0.0,-999.0,94,-99.99,,,0.00,Acu-Link.com,2013-02-11 06:06:00,
2013-02-11 01:22:00,-0.9,-2.2,30.16,SSE,157,0.0,-999.0,94,-99.99,,,0.00,Acu-Link.com,2013-02-11 06:22:00,
2013-02-11 01:37:00,-0.9,-2.2,30.16,North,0,2.2,-999.0,94,-99.99,,,0.00,Acu-Link.com,2013-02-11 06:37:00,
2013-02-11 01:52:00,-0.8,-2.1,30.14,SE,135,0.0,-999.0,94,-99.99,,,0.00,Acu-Link.com,2013-02-11 06:52:00,
2013-02-11 02:07:00,-1.1,-2.6,30.12,WNW,292,0.0,-999.0,93,-99.99,,,0.00,Acu-Link.com,2013-02-11 07:07:00,
2013-02-11 02:22:00,-0.6,-2.1,30.13,NNE,22,1.1,-999.0,93,-99.99,,,0.00,Acu-Link.com,2013-02-11 07:22:00,
2013-02-11 02:38:00,-0.6,-2.1,30.12,NNW,337,0.0,-999.0,93,-99.99,,,0.00,Acu-Link.com,2013-02-11 07:38:00,
2013-02-11 02:53:00,-0.2,-1.7,30.11,NNE,22,0.0,-999.0,93,-99.99,,,0.00,Acu-Link.com,2013-02-11 07:53:00,
2013-02-11 03:08:00,-0.2,-1.7,30.11,NNE,22,0.0,-999.0,93,-99.99,,,0.00,Acu-Link.com,2013-02-11 08:08:00,
2013-02-11 03:23:00,0.1,-1.4,30.10,SW,225,0.0,-999.0,93,-99.99,,,0.00,Acu-Link.com,2013-02-11 08:23:00,
2013-02-11 03:38:00,1.0,-0.3,30.09,West,270,2.2,-999.0,94,-99.99,,,0.00,Acu-Link.com,2013-02-11 08:38:00,
2013-02-11 03:54:00,1.4,0.1,30.09,NE,45,0.0,-999.0,94,-99.99,,,0.00,Acu-Link.com,2013-02-11 08:54:00,
2013-02-11 04:17:00,1.8,0.5,30.08,SW,225,0.0,-999.0,94,-99.99,,,0.00,Acu-Link.com,2013-02-11 09:17:00,
2013-02-11 04:32:00,3.0,1.2,30.05,ESE,112,1.7,-999.0,92,-99.99,,,0.00,Acu-Link.com,2013-02-11 09:32:00,
2013-02-11 04:47:00,5.4,3.1,30.04,WSW,247,0.0,-999.0,90,-99.99,,,0.00,Acu-Link.com,2013-02-11 09:47:00,
2013-02-11 05:02:00,7.9,4.3,30.03,SW,225,1.1,-999.0,85,-99.99,,,0.00,Acu-Link.com,2013-02-11 10:02:00,
2013-02-11 05:17:00,11.7,4.1,30.02,SSE,157,2.2,-999.0,71,-99.99,,,0.00,Acu-Link.com,2013-02-11 10:17:00,
2013-02-11 05:32:00,16.3,3.0,30.01,ENE,67,2.7,-999.0,55,-99.99,,,0.00,Acu-Link.com,2013-02-11 10:32:00,
2013-02-11 05:48:00,17.6,2.6,30.01,East,90,3.2,-999.0,51,-99.99,,,0.00,Acu-Link.com,2013-02-11 10:48:00,
2013-02-11 06:03:00,19.0,2.6,29.99,SSE,157,1.7,-999.0,48,-99.99,,,0.00,Acu-Link.com,2013-02-11 11:03:00,
2013-02-11 06:18:00,19.8,2.9,29.98,East,90,3.7,-999.0,47,-99.99,,,0.00,Acu-Link.com,2013-02-11 11:18:00,
2013-02-11 06:34:00,20.5,4.0,29.97,WSW,247,7.3,-999.0,48,-99.99,,,0.00,Acu-Link.com,2013-02-11 11:34:00,
2013-02-11 06:49:00,21.0,3.5,29.97,SSE,157,3.7,-999.0,46,-99.99,,,0.00,Acu-Link.com,2013-02-11 11:49:00,
2013-02-11 07:04:00,21.0,3.5,29.97,SSE,157,6.3,-999.0,46,-99.99,,,0.00,Acu-Link.com,2013-02-11 12:04:00,
2013-02-11 07:19:00,21.4,3.4,29.96,SE,135,4.7,-999.0,45,-99.99,,,0.00,Acu-Link.com,2013-02-11 12:19:00,
2013-02-11 07:34:00,21.6,3.6,29.96,ESE,112,5.8,-999.0,45,-99.99,,,0.00,Acu-Link.com,2013-02-11 12:34:00,
2013-02-11 07:50:00,21.7,3.7,29.94,SE,135,10.4,-999.0,45,-99.99,,,0.00,Acu-Link.com,2013-02-11 12:50:00,
2013-02-11 08:05:00,22.3,3.2,29.94,ESE,112,6.3,-999.0,43,-99.99,,,0.00,Acu-Link.com,2013-02-11 13:05:00,
2013-02-11 08:20:00,23.0,4.4,29.93,SSE,157,6.3,-999.0,44,-99.99,,,0.00,Acu-Link.com,2013-02-11 13:20:00,
2013-02-11 08:35:00,23.4,4.2,29.91,ESE,112,8.3,-999.0,43,-99.99,,,0.00,Acu-Link.com,2013-02-11 13:35:00,
2013-02-11 08:51:00,23.2,4.6,29.90,ENE,67,4.2,-999.0,44,-99.99,,,0.00,Acu-Link.com,2013-02-11 13:51:00,
2013-02-11 09:06:00,23.4,4.7,29.90,ESE,112,3.2,-999.0,44,-99.99,,,0.00,Acu-Link.com,2013-02-11 14:06:00,
2013-02-11 09:21:00,23.7,5.5,29.89,ESE,112,4.7,-999.0,45,-99.99,,,0.00,Acu-Link.com,2013-02-11 14:21:00,
2013-02-11 09:36:00,25.9,6.0,29.88,ESE,112,3.7,-999.0,42,-99.99,,,0.00,Acu-Link.com,2013-02-11 14:36:00,
2013-02-11 09:51:00,26.8,8.3,29.86,SE,135,5.8,-999.0,45,-99.99,,,0.00,Acu-Link.com,2013-02-11 14:51:00,
2013-02-11 10:07:00,25.7,7.3,29.85,SE,135,4.2,-999.0,45,-99.99,,,0.00,Acu-Link.com,2013-02-11 15:07:00,
2013-02-11 10:22:00,25.2,8.3,29.84,ESE,112,3.7,-999.0,48,-99.99,,,0.00,Acu-Link.com,2013-02-11 15:22:00,
2013-02-11 10:37:00,25.9,7.0,29.83,SSE,157,5.8,-999.0,44,-99.99,,,0.00,Acu-Link.com,2013-02-11 15:37:00,
2013-02-11 10:52:00,26.1,9.6,29.84,SE,135,4.7,-999.0,49,-99.99,,,0.00,Acu-Link.com,2013-02-11 15:52:00,
2013-02-11 11:07:00,25.7,9.7,29.82,SE,135,3.7,-999.0,50,-99.99,,,0.00,Acu-Link.com,2013-02-11 16:07:00,
2013-02-11 11:23:00,25.2,10.1,29.81,South,180,3.2,-999.0,52,-99.99,,,0.00,Acu-Link.com,2013-02-11 16:23:00,
2013-02-11 11:38:00,25.0,14.2,29.79,SSE,157,2.7,-999.0,63,-99.99,,,0.00,Acu-Link.com,2013-02-11 16:38:00,
2013-02-11 11:53:00,23.9,17.2,29.78,ESE,112,7.3,-999.0,75,-99.99,,,0.00,Acu-Link.com,2013-02-11 16:53:00,
2013-02-11 12:08:00,22.8,19.3,29.77,SSW,202,3.2,-999.0,86,-99.99,,,0.00,Acu-Link.com,2013-02-11 17:08:00,
2013-02-11 12:24:00,21.9,20.2,29.76,ESE,112,5.3,-999.0,93,-99.99,,,0.00,Acu-Link.com,2013-02-11 17:24:00,
2013-02-11 12:39:00,22.1,20.4,29.75,ENE,67,3.7,-999.0,93,-99.99,,,0.00,Acu-Link.com,2013-02-11 17:39:00,
2013-02-11 12:54:00,22.8,21.1,29.73,SW,225,1.7,-999.0,93,-99.99,,,0.00,Acu-Link.com,2013-02-11 17:54:00,
2013-02-11 13:09:00,23.7,22.0,29.72,ESE,112,5.8,-999.0,93,-99.99,,,0.00,Acu-Link.com,2013-02-11 18:09:00,
2013-02-11 13:24:00,24.4,22.7,29.72,SSE,157,2.7,-999.0,93,-99.99,,,0.00,Acu-Link.com,2013-02-11 18:24:00,
2013-02-11 13:40:00,24.4,22.9,29.70,SE,135,5.3,-999.0,94,-99.99,,,0.00,Acu-Link.com,2013-02-11 18:40:00,
2013-02-11 13:55:00,24.8,23.3,29.70,WNW,292,1.7,-999.0,94,-99.99,,,0.00,Acu-Link.com,2013-02-11 18:55:00,
2013-02-11 14:10:00,25.3,24.1,29.68,East,90,2.7,-999.0,95,-99.99,,,0.00,Acu-Link.com,2013-02-11 19:10:00,
2013-02-11 14:25:00,26.4,24.9,29.67,East,90,4.2,-999.0,94,-99.99,,,0.00,Acu-Link.com,2013-02-11 19:25:00,
2013-02-11 14:40:00,27.1,25.4,29.65,ESE,112,4.7,-999.0,93,-99.99,,,0.00,Acu-Link.com,2013-02-11 19:40:00,
2013-02-11 14:56:00,27.3,25.5,29.64,ESE,112,2.7,-999.0,93,-99.99,,,0.00,Acu-Link.com,2013-02-11 19:56:00,
2013-02-11 15:11:00,27.9,26.1,29.64,ESE,112,5.8,-999.0,93,-99.99,,,0.00,Acu-Link.com,2013-02-11 20:11:00,
2013-02-11 15:26:00,28.2,26.4,29.63,East,90,2.2,-999.0,93,-99.99,,,0.00,Acu-Link.com,2013-02-11 20:26:00,
2013-02-11 15:41:00,28.4,26.6,29.62,SE,135,2.7,-999.0,93,-99.99,,,0.00,Acu-Link.com,2013-02-11 20:41:00,
2013-02-11 15:56:00,28.6,27.1,29.61,ESE,112,4.2,-999.0,94,-99.99,,,0.00,Acu-Link.com,2013-02-11 20:56:00,
2013-02-11 16:12:00,28.8,27.3,29.61,ESE,112,3.2,-999.0,94,-99.99,,,0.00,Acu-Link.com,2013-02-11 21:12:00,
2013-02-11 16:27:00,28.9,27.7,29.60,SE,135,3.7,-999.0,95,-99.99,,,0.00,Acu-Link.com,2013-02-11 21:27:00,
2013-02-11 16:42:00,28.9,27.9,29.58,East,90,3.2,-999.0,96,-99.99,,,0.00,Acu-Link.com,2013-02-11 21:42:00,
2013-02-11 16:57:00,29.1,28.1,29.56,SSE,157,3.7,-999.0,96,-99.99,,,0.00,Acu-Link.com,2013-02-11 21:57:00,
2013-02-11 17:12:00,29.1,28.4,29.57,North,0,2.2,-999.0,97,-99.99,,,0.00,Acu-Link.com,2013-02-11 22:12:00,
2013-02-11 17:28:00,29.1,28.6,29.57,ESE,112,1.1,-999.0,98,-99.99,,,0.00,Acu-Link.com,2013-02-11 22:28:00,
2013-02-11 17:43:00,29.3,28.8,29.56,ESE,112,3.2,-999.0,98,-99.99,,,0.00,Acu-Link.com,2013-02-11 22:43:00,
2013-02-11 17:58:00,29.3,28.8,29.55,East,90,1.7,-999.0,98,-99.99,,,0.00,Acu-Link.com,2013-02-11 22:58:00,
2013-02-11 18:13:00,29.3,28.8,29.54,NNE,22,0.0,-999.0,98,-99.99,,,0.00,Acu-Link.com,2013-02-11 23:13:00,
2013-02-11 18:29:00,29.5,29.0,29.54,ESE,112,4.2,-999.0,98,-99.99,,,0.00,Acu-Link.com,2013-02-11 23:29:00,
2013-02-11 18:44:00,29.7,29.5,29.53,East,90,4.2,-999.0,99,-99.99,,,0.00,Acu-Link.com,2013-02-11 23:44:00,
2013-02-11 18:59:00,29.8,29.6,29.53,ESE,112,2.7,-999.0,99,-99.99,,,0.00,Acu-Link.com,2013-02-11 23:59:00,
2013-02-11 19:14:00,29.8,29.6,29.53,WNW,292,1.1,-999.0,99,-99.99,,,0.00,Acu-Link.com,2013-02-12 00:14:00,
2013-02-11 19:29:00,29.8,29.6,29.54,NNW,337,0.0,-999.0,99,-99.99,,,0.00,Acu-Link.com,2013-02-12 00:29:00,
2013-02-11 19:45:00,29.5,29.3,29.52,NE,45,0.0,-999.0,99,-99.99,,,0.00,Acu-Link.com,2013-02-12 00:45:00,
2013-02-11 20:00:00,29.7,29.5,29.53,WSW,247,0.0,-999.0,99,-99.99,,,0.00,Acu-Link.com,2013-02-12 01:00:00,
2013-02-11 20:15:00,29.8,29.6,29.52,East,90,1.1,-999.0,99,-99.99,,,0.00,Acu-Link.com,2013-02-12 01:15:00,
2013-02-11 20:30:00,30.0,29.8,29.51,SSW,202,1.7,-999.0,99,-99.99,,,0.00,Acu-Link.com,2013-02-12 01:30:00,
2013-02-11 20:45:00,30.0,29.8,29.51,WNW,292,1.1,-999.0,99,-99.99,,,0.00,Acu-Link.com,2013-02-12 01:45:00,
2013-02-11 21:01:00,29.8,29.6,29.50,ESE,112,0.0,-999.0,99,-99.99,,,0.00,Acu-Link.com,2013-02-12 02:01:00,
2013-02-11 21:16:00,29.7,29.5,29.50,ENE,67,0.0,-999.0,99,-99.99,,,0.00,Acu-Link.com,2013-02-12 02:16:00,
2013-02-11 21:31:00,29.7,29.5,29.50,SSE,157,2.2,-999.0,99,-99.99,,,0.00,Acu-Link.com,2013-02-12 02:31:00,
2013-02-11 21:46:00,29.7,29.5,29.50,SE,135,0.0,-999.0,99,-99.99,,,0.00,Acu-Link.com,2013-02-12 02:46:00,
2013-02-11 22:01:00,29.8,29.6,29.50,West,270,2.2,-999.0,99,-99.99,,,0.00,Acu-Link.com,2013-02-12 03:01:00,
2013-02-11 22:17:00,29.7,29.5,29.49,NNE,22,0.0,-999.0,99,-99.99,,,0.00,Acu-Link.com,2013-02-12 03:17:00,
2013-02-11 22:32:00,29.7,29.5,29.50,ENE,67,0.0,-999.0,99,-99.99,,,0.00,Acu-Link.com,2013-02-12 03:32:00,
2013-02-11 22:47:00,29.7,29.5,29.49,NNW,337,0.0,-999.0,99,-99.99,,,0.00,Acu-Link.com,2013-02-12 03:47:00,
2013-02-11 23:02:00,29.7,29.5,29.46,East,90,3.2,-999.0,99,-99.99,,,0.00,Acu-Link.com,2013-02-12 04:02:00,
2013-02-11 23:18:00,29.7,29.5,29.47,West,270,0.0,-999.0,99,-99.99,,,0.00,Acu-Link.com,2013-02-12 04:18:00,
2013-02-11 23:33:00,29.5,29.3,29.46,WSW,247,2.7,-999.0,99,-99.99,,,0.00,Acu-Link.com,2013-02-12 04:33:00,
2013-02-11 23:48:00,29.5,29.3,29.45,West,270,0.0,-999.0,99,-99.99,,,0.00,Acu-Link.com,2013-02-12 04:48:00,